User: anonymous   Login
Location: Davidschlag
(48.4333°N, 14.2833°E)
Time: 21:04:18
(UTC+00:00)
Language:

Cosmos 2221 Rocket - Orbit

View from above orbital plane
View from above orbital plane
View from above satellite
View from above satellite

Ground track
Ground track

The orbit data is extracted from the following two-line orbital elements,

1 22237U 92080B   20158.43876088 +.00000060 +00000-0 +51196-5 0  9998
2 22237 082.5118 188.1240 0018182 255.5149 104.4046 14.78410467483699
Epoch (UTC): 06 June 2020 10:31:48
Eccentricity: 0.0018182
inclination: 82.5118°
perigee height: 621 km
apogee height: 647 km
right ascension of ascending node: 188.1240°
argument of perigee: 255.5149°
revolutions per day: 14.78410467
mean anomaly at epoch: 104.4046°
orbit number at epoch: 48369

The dashed part of the orbit path shows where the satellite is in the earth's shadow,  

DLR